Date String (YYYY-MM-DD hh:mm:ss) UTC,Instrument flags,Ambient pressure (hPa),Sample flow (lpm),Bypass flow (lpm),Sample temperature (°C),Ambient temperature (°C),ASC tube jacket temperature (°C),LED temperature (°C),Box temperature (°C),Sample RH (%),Span deviation,Mass concentration (μg/m³),Mass concentration (μg/m³),Mass concentration (μg/m³)
DateTimeUTC,F1_M11,P_M11,Q1_M11,Q2_M11,T1_M11,T2_M11,T3_M11,T4_M11,T5_M11,U1_M11,ZSPAN_M11,X0_M11,X2_M11,X1_M11
2022-01-12 17:00:00,,0832.2,4.99,0.00,24.5,23.8,00.0,33.4,26.3,10.1,0000.0,0001.82,0000.01,0000.00
2022-01-12 17:01:00,,0832.1,5.00,0.00,24.5,23.8,00.0,33.4,26.3,10.0,0000.0,0001.82,0000.01,0000.00
2022-01-12 17:02:00,,0832.1,4.99,0.00,24.5,23.8,00.0,33.4,26.3,10.2,0000.0,0001.82,0000.01,0000.00
2022-01-12 17:03:00,,0832.1,5.00,0.00,24.5,23.8,00.0,33.4,26.3,10.3,0000.0,0001.82,0000.01,0000.00
2022-01-12 17:04:00,,0832.1,5.01,0.00,24.5,23.7,00.0,33.4,26.3,10.2,0000.0,0001.82,0000.01,0000.01
2022-01-12 17:05:00,,0832.1,5.00,0.00,24.5,23.7,00.0,33.4,26.3,10.2,0000.0,0001.82,0000.01,0000.01
2022-01-12 17:06:00,,0832.1,5.00,0.00,24.5,23.7,00.0,33.4,26.3,10.3,0000.0,0001.77,0000.01,0000.01
2022-01-12 17:07:00,,0832.1,5.00,0.00,24.5,23.7,00.0,33.4,26.2,10.7,0000.0,0000.73,0000.02,0000.01
2022-01-12 17:08:00,,0832.0,5.00,0.00,24.5,23.7,00.0,33.4,26.3,10.6,0000.0,0000.07,0000.02,0000.00
2022-01-12 17:09:00,,0832.1,4.99,0.00,24.5,23.8,00.0,33.4,26.3,10.6,0000.0,0000.07,0000.02,0000.00
2022-01-12 17:10:00,,0832.1,5.00,0.00,24.5,23.8,00.0,33.4,26.3,10.8,0000.0,0000.07,0000.02,0000.00
2022-01-12 17:11:00,,0832.0,4.99,0.00,24.5,23.7,00.0,33.4,26.3,10.6,0000.0,0000.07,0000.02,0000.00
2022-01-12 17:12:00,,0832.1,4.99,0.00,24.5,23.7,00.0,33.4,26.3,10.6,0000.0,0000.07,0000.02,0000.00
2022-01-12 17:13:00,,0832.0,5.01,0.00,24.5,23.7,00.0,33.4,26.3,10.9,0000.0,0000.07,0000.02,0000.00
2022-01-12 17:14:00,,0832.1,4.99,0.00,24.5,23.7,00.0,33.5,26.3,10.9,0000.0,0000.07,0000.02,0000.00
2022-01-12 17:15:00,,0832.1,5.00,0.00,24.5,23.7,00.0,33.5,26.3,11.0,0000.0,0000.06,0000.02,0000.00
2022-01-12 17:16:00,,0832.1,5.00,0.00,24.5,23.7,00.0,33.5,26.3,11.0,0000.0,0000.10,0000.03,0000.00
2022-01-12 17:17:00,,0832.1,5.01,0.00,24.5,23.7,00.0,33.5,26.3,10.8,0000.0,0000.11,0000.03,0000.00
2022-01-12 17:18:00,,0832.1,4.99,0.00,24.6,23.7,00.0,33.5,26.3,10.9,0000.0,0000.06,0000.02,0000.00
2022-01-12 17:19:00,,0832.1,5.00,0.00,24.6,23.7,00.0,33.5,26.4,11.0,0000.0,0000.07,0000.02,0000.00
2022-01-12 17:20:00,,0832.1,5.01,0.00,24.6,23.7,00.0,33.5,26.4,11.2,0000.0,0000.12,0000.03,0000.00
2022-01-12 17:21:00,,0832.1,4.98,0.00,24.6,23.7,00.0,33.5,26.4,11.1,0000.0,0000.15,0000.05,0000.00
2022-01-12 17:22:00,,0832.1,5.02,0.00,24.6,23.7,00.0,33.5,26.4,11.4,0000.0,0000.19,0000.06,0000.00
2022-01-12 17:23:00,,0832.2,5.00,0.00,24.6,23.7,00.0,33.5,26.4,11.6,0000.0,0000.19,0000.06,0000.00
2022-01-12 17:24:00,,0832.2,5.00,0.00,24.6,23.7,00.0,33.5,26.4,11.2,0000.0,0000.19,0000.06,0000.00
2022-01-12 17:25:00,,0832.1,4.99,0.00,24.6,23.8,00.0,33.5,26.4,10.8,0000.0,0000.19,0000.06,0000.00
2022-01-12 17:26:00,,0832.2,5.01,0.00,24.6,23.8,00.0,33.5,26.4,10.7,0000.0,0000.19,0000.06,0000.00
2022-01-12 17:27:00,,0832.2,5.00,0.00,24.6,23.8,00.0,33.5,26.4,10.9,0000.0,0000.23,0000.06,0000.00
2022-01-12 17:28:00,,0832.3,4.99,0.00,24.6,23.8,00.0,33.5,26.4,10.9,0000.0,0000.30,0000.07,0000.00
2022-01-12 17:29:00,,0832.3,5.01,0.00,24.7,23.8,00.0,33.6,26.5,10.6,0000.0,0000.43,0000.07,0000.00
2022-01-12 17:30:00,,0832.4,4.98,0.00,24.7,23.8,00.0,33.6,26.5,10.6,0000.0,0000.53,0000.08,0000.00
2022-01-12 17:31:00,,0832.5,4.99,0.00,24.7,23.8,00.0,33.6,26.5,10.6,0000.0,0001.16,0000.08,0000.00
2022-01-12 17:32:00,,0832.5,5.02,0.00,24.7,23.9,00.0,33.6,26.5,10.9,0000.0,0002.02,0000.07,0000.00
2022-01-12 17:33:00,,0832.5,5.00,0.00,24.7,23.9,00.0,33.6,26.5,10.9,0000.0,0002.04,0000.07,0000.00
2022-01-12 17:34:00,,0832.5,5.00,0.00,24.7,24.0,00.0,33.6,26.5,10.6,0000.0,0002.10,0000.07,0000.00
2022-01-12 17:35:00,,0832.5,5.00,0.00,24.7,24.0,00.0,33.6,26.6,09.6,0000.0,0002.15,0000.08,0000.00
2022-01-12 17:36:00,,0832.5,5.00,0.00,24.7,24.0,00.0,33.6,26.6,09.5,0000.0,0002.15,0000.08,0000.00
2022-01-12 17:37:00,,0832.5,5.00,0.00,24.7,24.1,00.0,33.6,26.6,09.8,0000.0,0002.17,0000.09,0000.00
2022-01-12 17:38:00,,0832.5,5.00,0.00,24.7,24.1,00.0,33.7,26.6,09.7,0000.0,0002.11,0000.08,0000.00
2022-01-12 17:39:00,,0832.5,5.00,0.00,24.8,24.1,00.0,33.7,26.6,09.6,0000.0,0002.15,0000.07,0000.00
2022-01-12 17:40:00,,0832.5,4.99,0.00,24.8,24.1,00.0,33.7,26.6,09.7,0000.0,0003.75,0000.07,0000.00
2022-01-12 17:41:00,,0832.5,5.01,0.00,24.8,24.1,00.0,33.7,26.7,09.7,0000.0,0003.61,0000.06,0000.00
2022-01-12 17:42:00,,0832.5,5.00,0.00,24.8,24.2,00.0,33.7,26.7,09.8,0000.0,0003.09,0000.04,0000.00
2022-01-12 17:43:00,,0832.4,5.00,0.00,24.8,24.2,00.0,33.7,26.7,10.0,0000.0,0002.05,0000.04,0000.00
2022-01-12 17:44:00,,0832.4,4.99,0.00,24.8,24.2,00.0,33.7,26.7,10.0,0000.0,0001.99,0000.03,0000.00
2022-01-12 17:45:00,,0832.4,5.02,0.00,24.9,24.2,00.0,33.7,26.7,10.2,0000.0,0001.94,0000.04,0000.00
2022-01-12 17:46:00,,0832.4,4.99,0.00,24.9,24.3,00.0,33.8,26.7,09.8,0000.0,0001.91,0000.05,0000.01
2022-01-12 17:47:00,,0832.4,5.01,0.00,24.9,24.3,00.0,33.8,26.8,09.8,0000.0,0002.37,0000.05,0000.01
2022-01-12 17:48:00,,0832.4,4.99,0.00,24.9,24.3,00.0,33.8,26.8,09.8,0000.0,0003.04,0000.04,0000.00
2022-01-12 17:49:00,,0832.4,5.00,0.00,24.9,24.3,00.0,33.8,26.8,09.6,0000.0,0003.03,0000.03,0000.00
2022-01-12 17:50:00,,0832.3,5.01,0.00,24.9,24.4,00.0,33.8,26.8,09.5,0000.0,0002.79,0000.03,0000.00
2022-01-12 17:51:00,,0832.2,4.99,0.00,24.9,24.4,00.0,33.8,26.8,09.3,0000.0,0001.19,0000.02,0000.00
2022-01-12 17:52:00,,0832.1,5.00,0.00,25.0,24.4,00.0,33.8,26.8,09.9,0000.0,0001.23,0000.03,0000.00
2022-01-12 17:53:00,,0832.1,4.99,0.00,25.0,24.4,00.0,33.8,26.8,10.3,0000.0,0001.28,0000.04,0000.01
2022-01-12 17:54:00,,0832.2,5.00,0.00,25.0,24.4,00.0,33.9,26.8,10.6,0000.0,0001.28,0000.04,0000.01
2022-01-12 17:55:00,,0832.1,5.00,0.00,25.0,24.4,00.0,33.9,26.9,10.5,0000.0,0001.28,0000.04,0000.01
2022-01-12 17:56:00,,0832.1,4.99,0.00,25.0,24.4,00.0,33.9,26.9,10.7,0000.0,0001.26,0000.03,0000.00
2022-01-12 17:57:00,,0832.1,5.01,0.00,25.0,24.4,00.0,33.9,26.9,10.8,0000.0,0001.25,0000.02,0000.00
2022-01-12 17:58:00,,0832.1,5.00,0.00,25.0,24.4,00.0,33.9,26.9,10.7,0000.0,0000.73,0000.02,0000.00
2022-01-12 17:59:00,,0832.1,5.00,0.00,25.0,24.4,00.0,33.9,26.9,10.4,0000.0,0000.09,0000.02,0000.00
